Location: Beugnon
(47.6222°N, 3.7850°E)
Time: 18:55:58
(UTC+00:00)

STARLINK-1244 - Pass Details

Date: 09 April 2020
Orbit: 549 x 550 km, 53.0° (Epoch: 04 June)

Event Time Altitude Azimuth Distance (km) Brightness Sun altitude
Rises 19:50:34 0° 296° (WNW) 2,782 9.2 -14.0°
Reaches altitude 10° 19:52:50 10° 299° (WNW) 1,883 7.8 -14.3°
Maximum altitude 19:57:08 73° 24° (NNE) 604 3.8 -15.0°
Enters shadow 19:59:24 27° 105° (ESE) 1,119 4.6 -15.3°
